Date,TemperatureHighF,TemperatureAvgF,TemperatureLowF,DewpointHighF,DewpointAvgF,DewpointLowF,HumidityHigh,HumidityAvg,HumidityLow,PressureMaxIn,PressureMinIn,WindSpeedMaxMPH,WindSpeedAvgMPH,GustSpeedMaxMPH,PrecipitationSumIn
2013-1-1,40,36,26,9,1,-10,30,22,20,29.71,29.53,10,9,10,0.00
2013-1-2,32,27,22,-4,-9,-13,20,20,20,29.88,29.71,10,9,10,0.00
2013-1-3,31,28,24,-5,-8,-12,25,20,20,29.91,29.77,9,9,9,0.00
2013-1-4,38,33,29,2,-3,-7,29,21,20,29.80,29.65,9,9,9,0.00
2013-1-5,41,34,30,12,1,-6,42,25,20,30.00,29.71,9,6,9,0.00
2013-1-6,44,37,32,21,12,2,56,37,20,29.94,29.68,0,0,0,0.00
2013-1-7,43,37,30,12,7,-1,40,30,20,30.12,29.77,17,6,17,0.00
2013-1-8,47,37,28,20,12,4,54,37,20,30.15,30.06,15,3,15,0.00
2013-1-9,48,41,31,23,17,7,57,40,20,30.12,29.85,0,0,0,0.00
2013-1-10,46,41,36,11,5,0,31,22,20,30.24,29.94,1,0,1,0.00
2013-1-11,46,41,34,41,18,3,82,43,23,30.24,29.83,8,1,8,0.37
2013-1-12,48,45,42,43,39,33,92,79,61,29.91,29.80,16,4,16,0.03
2013-1-13,84,46,42,70,38,33,85,75,52,29.88,29.74,9,3,9,0.01
2013-1-14,57,50,37,49,36,12,91,64,26,30.00,29.65,7,7,7,0.03
2013-1-15,40,38,34,28,17,7,72,45,27,30.06,29.94,7,7,7,0.09
2013-1-16,37,36,33,35,30,17,90,81,47,29.94,29.50,7,7,7,0.77
2013-1-17,44,39,36,28,12,2,71,35,20,29.80,29.62,7,7,7,0.00
2013-1-18,88,30,26,19,-4,-10,27,22,8,30.21,29.71,7,7,7,0.00
2013-1-19,50,38,26,19,4,-7,40,25,20,30.12,29.65,23,10,23,0.00
2013-1-20,54,42,30,15,8,-7,38,24,20,29.74,29.41,29,13,29,0.00
2013-1-21,36,31,25,6,-4,-10,32,22,20,29.80,29.56,18,4,18,0.00
2013-1-22,32,21,13,0,-13,-21,25,21,20,29.91,29.59,26,15,26,0.00
2013-1-23,20,14,6,-15,-20,-26,20,20,20,29.97,29.85,24,11,24,0.00
2013-1-24,19,16,15,-16,-18,-19,20,20,20,30.09,29.85,30,11,30,0.00
2013-1-25,28,19,12,3,-12,-22,45,25,20,30.12,29.77,20,10,20,0.00
2013-1-26,25,19,14,0,-9,-17,44,29,20,30.06,29.77,50,8,50,0.00
2013-1-27,31,23,17,-5,-11,-17,30,21,20,30.21,30.06,10,2,10,0.00
2013-1-28,127,54,22,100,32,-8,86,53,25,30.18,29.71,15,4,15,0.23
2013-1-29,48,40,35,34,29,21,85,67,36,29.88,29.71,9,4,9,0.09
2013-1-30,53,49,41,50,43,33,91,81,64,29.83,29.18,15,6,15,0.00
2013-1-31,53,44,29,51,19,-7,93,45,20,29.47,28.82,30,20,30,0.28
2013-2-1,31,27,23,-6,-8,-12,20,20,20,29.94,29.50,20,18,20,0.00
2013-2-2,32,25,-43,10,-8,-69,49,23,20,30.00,29.77,18,9,18,0.00
2013-2-3,31,27,24,12,5,-6,55,39,20,29.77,29.50,60,2,60,0.00
2013-2-4,30,26,22,8,-8,-13,43,22,20,29.68,29.50,22,10,22,0.00
2013-2-5,31,30,28,15,10,-7,51,44,21,29.71,29.62,8,1,8,0.00
2013-2-8,31,26,25,14,-8,-11,50,23,20,30.15,29.62,1,0,1,0.00
2013-2-9,33,28,26,26,25,-4,89,87,50,30.21,29.38,23,9,23,0.51
2013-2-10,48,30,14,25,5,-14,87,41,20,30.18,30.03,14,3,14,0.00
2013-2-11,47,40,29,42,30,8,83,69,42,30.06,29.38,14,3,14,0.07
2013-2-12,56,42,31,40,12,2,100,34,20,29.68,29.38,22,9,22,0.07
2013-2-13,54,36,26,13,9,2,48,34,20,29.68,29.41,10,2,10,0.00
2013-2-14,65,40,32,25,15,3,58,40,20,29.74,29.41,11,5,11,0.00
2013-2-15,58,42,32,23,18,9,60,41,20,29.74,29.65,9,3,9,0.00
2013-2-16,41,36,29,21,9,-2,54,34,20,29.68,29.41,22,10,22,0.11
2013-2-17,44,28,17,6,-7,-17,30,21,20,29.65,29.32,40,23,40,0.00
2013-2-18,51,27,17,11,-8,-17,23,20,20,29.94,29.65,34,15,34,0.00
2013-2-19,48,39,28,37,16,-6,72,41,20,29.94,29.38,22,6,22,0.18
2013-2-20,41,32,26,8,-4,-10,27,21,20,29.68,29.41,31,16,31,0.01
2013-2-21,44,30,24,27,-4,-12,50,22,20,30.00,29.68,33,18,33,0.00
2013-2-22,73,34,26,30,3,-5,31,27,20,30.12,29.97,20,6,20,0.00
2013-2-23,45,41,35,34,26,8,70,56,31,30.00,29.50,14,6,14,0.20
2013-2-24,52,41,38,29,17,3,70,42,20,29.65,29.44,26,12,26,0.00
2013-2-25,64,41,31,22,6,3,37,24,20,29.94,29.65,17,6,17,0.00
2013-2-26,41,40,38,15,6,4,38,24,21,30.03,29.65,16,4,16,0.09
2013-2-27,51,44,38,41,25,15,71,48,35,29.65,29.20,25,9,25,0.89
2013-2-28,59,45,41,28,16,9,57,32,20,29.35,29.26,16,4,16,0.01
2013-3-1,48,41,35,18,10,3,46,29,20,29.47,29.32,18,8,18,0.00
2013-3-2,42,38,35,6,4,1,28,24,20,29.47,29.41,21,10,21,0.00
2013-3-3,48,35,30,12,5,-2,46,29,20,29.44,29.35,18,10,18,0.01
2013-3-4,54,35,28,14,2,-3,29,25,20,29.59,29.44,25,16,25,0.00
2013-3-5,45,34,30,8,4,1,33,29,20,29.74,29.59,23,10,23,0.00
2013-3-6,41,38,37,14,13,8,38,36,25,29.71,29.56,24,12,24,0.01
2013-3-7,37,35,34,23,18,13,63,52,38,29.77,29.62,29,18,29,0.41
2013-3-8,38,35,32,24,18,6,70,52,26,29.88,29.71,15,4,15,0.06
2013-3-9,57,43,33,16,8,3,33,24,20,29.97,29.85,22,11,22,0.45
2013-3-10,54,39,29,22,15,6,58,40,20,30.12,29.97,10,4,10,0.04
2013-3-11,55,46,39,37,26,17,58,45,25,30.06,29.83,15,6,15,0.00
2013-3-12,55,52,45,47,37,25,77,57,40,29.83,29.41,26,11,26,0.41
2013-3-13,64,45,35,26,15,4,60,33,20,29.59,29.50,22,7,22,0.00
2013-3-14,54,37,30,14,0,-7,28,21,20,29.65,29.56,31,16,31,0.00
2013-3-15,45,37,29,6,0,-7,23,20,20,29.68,29.44,55,13,55,0.00
2013-3-16,40,36,33,19,7,-2,54,32,20,29.62,29.50,18,4,18,0.03
2013-3-17,42,35,30,18,6,-2,54,31,20,30.00,29.62,22,7,22,0.07
2013-3-18,34,32,27,0,-4,-8,23,21,20,30.12,29.80,17,7,17,0.00
2013-3-19,33,33,33,-4,-4,-4,20,20,20,29.80,29.38,18,9,18,1.01
2013-3-20,38,33,33,5,-4,-4,25,20,20,29.59,29.50,28,11,28,0.00
2013-3-21,38,34,33,13,7,-2,43,32,20,29.56,29.35,18,5,18,0.00
2013-3-22,33,33,33,13,13,13,43,43,43,29.59,29.44,25,12,25,0.01
2013-3-23,33,33,33,13,13,13,43,43,43,29.65,29.53,28,14,28,0.00
2013-3-24,33,33,33,13,13,13,43,43,43,29.65,29.44,17,5,17,0.00
2013-3-25,40,35,33,23,16,12,57,46,32,29.44,29.18,22,5,22,0.40
2013-3-26,65,44,35,23,13,6,57,32,20,29.56,29.29,21,5,21,0.00
2013-3-27,50,40,38,11,8,5,30,28,20,29.68,29.56,16,8,16,0.11
2013-3-28,60,42,35,19,9,5,38,26,20,29.80,29.68,18,9,18,0.00
2013-3-29,59,48,40,18,10,5,26,21,20,29.85,29.77,20,10,20,0.00
2013-3-30,83,50,35,37,13,4,38,24,20,29.88,29.80,17,6,17,0.00
2013-3-31,52,47,34,20,14,9,50,29,20,29.85,29.38,19,5,19,0.04
2013-4-1,52,52,52,12,12,12,20,20,20,29.62,29.32,31,8,31,0.07
2013-4-2,52,52,52,12,12,12,20,20,20,29.80,29.62,56,12,56,0.00
2013-4-3,84,45,33,41,6,-4,22,20,20,30.00,29.80,26,15,26,0.00
2013-4-4,46,35,31,14,0,-5,34,22,20,30.09,29.83,19,5,19,0.00
2013-4-5,81,52,40,36,16,2,42,25,20,29.80,29.41,22,8,22,0.00
2013-4-6,44,38,37,5,1,0,20,20,20,30.03,29.71,28,8,28,0.00
2013-4-7,51,44,37,14,7,0,23,21,20,30.03,29.74,21,6,21,0.00
2013-4-8,51,51,51,14,14,14,23,23,23,29.80,29.71,13,2,13,0.00
2013-4-9,51,51,51,14,14,14,23,23,23,29.74,29.65,21,5,21,0.01
2013-4-10,51,51,51,14,14,14,23,23,23,29.71,29.53,22,4,22,0.37
2013-4-11,51,51,51,14,14,14,23,23,23,29.77,29.50,12,1,12,0.99
2013-4-12,51,51,51,14,14,14,23,23,23,29.77,29.41,21,11,21,0.64
2013-4-13,51,51,51,14,14,14,23,23,23,29.71,29.44,21,6,21,0.10
2013-4-14,51,51,51,14,14,14,23,23,23,29.94,29.71,14,6,14,0.00
2013-4-15,51,51,51,14,14,14,23,23,23,30.12,29.94,6,0,6,0.00
2013-4-16,51,51,51,14,14,14,23,23,23,30.09,29.85,17,6,17,0.00
2013-4-17,72,59,51,28,19,14,23,21,20,30.03,29.83,13,6,13,0.04
2013-4-18,69,69,69,26,26,26,20,20,20,30.09,29.83,13,13,13,0.00
2013-4-19,69,69,69,26,26,26,20,20,20,29.83,29.41,22,9,22,0.00
2013-4-20,69,69,69,26,26,26,20,20,20,29.97,29.41,26,9,26,0.23
2013-4-21,69,64,45,26,22,6,20,20,20,30.36,29.97,22,7,22,0.00
2013-4-22,63,48,38,22,12,6,36,23,20,30.39,30.21,13,6,13,0.00
2013-4-23,50,45,41,23,17,10,44,32,26,30.21,29.83,13,5,13,0.00
2013-4-24,50,50,50,19,19,19,29,29,29,29.83,29.62,13,7,13,0.00
2013-4-25,50,50,50,19,19,19,29,29,29,29.88,29.62,22,16,22,0.00
2013-4-26,50,50,50,19,19,19,29,29,29,30.12,29.88,21,10,21,0.00
2013-4-27,50,50,50,19,19,19,29,29,29,30.15,30.00,13,3,13,0.00
2013-4-28,50,50,50,19,19,19,29,29,29,30.03,29.94,9,2,9,0.00
2013-4-29,50,50,50,19,19,19,29,29,29,29.97,29.91,8,2,8,0.00
2013-4-30,50,50,50,19,19,19,29,29,29,30.06,29.94,10,2,10,0.00
2013-5-1,50,50,50,19,19,19,29,29,29,30.21,30.06,13,3,13,0.00
2013-5-2,50,50,50,19,19,19,29,29,29,30.21,30.06,9,1,9,0.00
2013-5-3,50,50,50,19,19,19,29,29,29,30.18,30.09,10,6,10,0.00
2013-5-4,50,50,50,19,19,19,29,29,29,30.09,29.97,11,10,11,0.00
2013-5-5,50,50,50,19,19,19,29,29,29,30.03,29.94,11,8,11,0.00
2013-5-6,50,50,50,19,19,19,29,29,29,30.00,29.88,7,2,7,0.00
2013-5-7,50,50,50,19,19,19,29,29,29,29.88,29.83,5,5,5,0.00
2013-5-8,68,53,50,38,24,19,47,33,26,29.83,29.71,5,5,5,0.58
2013-5-9,65,61,58,43,40,35,58,46,33,29.74,29.62,5,5,5,0.20
2013-5-10,63,63,63,36,36,36,36,36,36,29.71,29.62,5,5,5,0.00
2013-5-11,68,64,62,55,44,36,74,50,36,29.62,29.41,16,4,16,0.67
2013-5-12,68,65,59,56,37,25,76,42,20,29.65,29.38,50,7,50,0.06
2013-5-13,68,68,68,25,25,25,20,20,20,29.80,29.65,20,5,20,0.00
2013-5-14,72,66,50,28,24,12,28,21,20,29.83,29.74,15,4,15,0.00
2013-5-15,65,55,49,31,25,18,38,32,26,29.80,29.41,15,3,15,0.00
2013-5-16,71,63,61,38,33,25,42,33,20,29.53,29.41,16,2,16,0.00
2013-5-17,67,62,59,25,20,18,20,20,20,29.91,29.53,21,6,21,0.00
2013-5-18,59,59,59,38,21,18,46,23,20,30.03,29.91,13,1,13,0.03
2013-5-19,59,59,59,38,38,38,46,46,46,30.06,29.91,10,2,10,0.26
2013-5-20,77,63,59,56,43,36,77,49,23,29.91,29.71,6,0,6,0.00
2013-5-21,88,73,64,62,44,35,74,39,20,29.71,29.59,8,1,8,0.00
2013-5-22,81,69,60,49,44,36,57,42,22,29.68,29.59,0,0,0,0.01
2013-5-23,76,69,66,56,47,40,66,47,28,29.65,29.50,0,0,0,0.04
2013-5-24,68,68,68,46,46,46,45,45,45,29.62,29.41,16,6,16,0.36
2013-5-25,68,68,68,46,46,46,45,45,45,29.71,29.59,20,13,20,0.24
2013-5-26,68,68,68,46,46,46,45,45,45,29.91,29.65,26,10,26,0.00
2013-5-27,68,68,68,46,46,46,45,45,45,29.97,29.85,0,0,0,0.00
2013-5-28,68,68,68,46,46,46,45,45,45,29.94,29.85,4,0,4,0.38
2013-5-29,83,71,68,46,43,34,45,38,20,29.85,29.74,0,0,0,0.01
2013-5-30,95,78,65,49,42,35,51,30,20,29.85,29.80,0,0,0,0.00
2013-5-31,93,78,67,48,41,34,48,28,20,29.85,29.74,0,0,0,0.00
2013-6-1,89,76,67,47,41,35,48,30,20,29.74,29.65,0,0,0,0.00
2013-6-2,83,73,66,49,42,34,52,35,20,29.65,29.53,2,0,2,0.00
2013-6-3,77,72,68,62,50,28,74,50,22,29.59,29.53,15,2,15,0.64
2013-6-4,82,68,57,37,27,19,27,21,20,29.83,29.59,28,7,28,0.00
2013-6-5,74,69,57,30,27,19,26,21,20,29.91,29.83,14,2,14,0.06
2013-6-6,74,74,74,30,30,30,20,20,20,29.88,29.74,50,3,50,0.00
2013-6-7,74,74,74,30,30,30,20,20,20,29.74,29.35,13,2,13,1.91
2013-6-8,79,74,66,46,33,30,47,23,20,29.77,29.29,37,7,37,0.26
2013-6-9,82,71,62,48,38,29,56,33,20,29.91,29.77,6,2,6,0.00
2013-6-10,70,67,65,55,49,42,70,53,36,29.88,29.59,52,12,52,0.75
2013-6-11,82,74,69,61,47,34,74,43,20,29.59,29.32,10,4,10,0.52
2013-6-12,79,72,66,35,32,27,29,23,20,29.59,29.41,23,8,23,0.00
2013-6-13,79,73,64,43,37,34,46,29,20,29.56,29.20,18,2,18,0.95
2013-6-14,64,64,64,43,43,43,46,46,46,29.59,29.24,21,7,21,0.30
2013-6-15,64,63,38,43,41,20,49,45,44,29.71,29.59,16,3,16,0.00
2013-6-16,63,63,63,40,40,40,44,44,44,29.71,29.50,18,3,18,0.00
2013-6-17,88,73,63,42,40,38,44,33,20,29.65,29.56,4,0,4,0.00
2013-6-18,80,73,66,51,43,38,55,36,22,29.62,29.56,6,0,6,0.14
2013-6-19,86,68,-21,51,36,-44,55,33,20,29.88,29.59,18,4,18,0.00
2013-6-20,82,68,58,41,33,26,50,29,20,30.00,29.88,51,2,51,0.00
2013-6-21,83,70,64,39,34,27,39,28,20,30.03,29.97,13,2,13,0.00
2013-6-22,80,69,-2,41,31,-25,45,26,20,30.00,29.88,8,1,8,0.14
2013-6-23,83,76,66,43,39,31,38,26,20,29.91,29.80,16,3,16,0.01
2013-6-24,79,79,79,43,43,43,28,28,28,29.83,29.68,18,2,18,0.07
2013-6-25,79,79,79,43,43,43,28,28,28,29.74,29.53,54,4,54,0.00
2013-6-26,79,79,79,43,43,43,28,28,28,29.56,29.50,13,3,13,0.00
2013-6-27,79,79,79,43,43,43,28,28,28,29.56,29.32,13,2,13,0.00
2013-6-28,79,79,79,43,43,43,28,28,28,29.32,29.24,14,3,14,0.00
2013-6-29,86,80,79,43,43,41,28,27,20,29.44,29.24,10,2,10,0.00
2013-6-30,82,81,80,47,45,43,30,29,27,29.62,29.44,28,1,28,0.00
2013-7-1,82,82,82,47,47,47,30,30,30,29.80,29.62,13,1,13,0.48
2013-7-2,82,82,82,47,47,47,30,30,30,29.91,29.80,16,2,16,0.01
2013-7-3,82,82,82,47,47,47,30,30,30,29.97,29.91,13,1,13,0.00
2013-7-4,90,82,78,51,47,41,39,29,20,29.97,29.88,9,2,9,0.00
2013-7-5,91,82,75,60,48,42,59,33,20,29.94,29.83,12,2,12,0.00
2013-7-6,101,86,77,54,48,42,44,28,20,29.85,29.74,14,2,14,0.00
2013-7-7,94,86,79,51,46,39,38,25,20,29.77,29.65,12,2,12,0.00
2013-7-8,83,78,75,46,42,37,35,28,20,29.77,29.68,12,3,12,0.00
2013-7-9,79,79,79,43,43,43,28,28,28,29.80,29.71,50,2,50,0.00
2013-7-10,90,81,75,54,47,42,44,31,20,29.77,29.53,8,3,8,0.07
2013-7-11,89,80,76,57,48,39,51,34,20,29.65,29.53,5,4,5,0.01
2013-7-12,80,76,72,43,40,39,32,27,26,29.80,29.65,51,2,51,0.37
2013-7-13,85,78,76,55,42,39,46,28,26,30.00,29.80,7,1,7,0.23
2013-7-14,96,83,75,64,51,42,67,36,20,30.06,29.97,15,3,15,0.00
2013-7-15,100,87,38,52,47,20,46,26,20,29.97,29.85,11,2,11,0.00
2013-7-16,98,85,77,51,46,44,38,27,20,29.91,29.85,10,4,10,0.00
2013-7-17,91,91,91,44,44,44,20,20,20,29.91,29.80,4,0,4,0.00
2013-7-18,91,91,91,44,44,44,20,20,20,29.83,29.68,7,1,7,0.00
2013-7-19,91,91,91,44,44,44,20,20,20,29.71,29.53,28,4,28,0.00
2013-7-20,91,91,91,44,44,44,20,20,20,29.56,29.44,16,5,16,0.03
2013-7-21,91,91,91,44,44,44,20,20,20,29.71,29.56,8,1,8,0.00
2013-7-22,91,91,91,44,44,44,20,20,20,29.68,29.56,4,1,4,0.09
2013-7-23,91,91,91,44,44,44,20,20,20,29.56,29.29,7,2,7,0.37
2013-7-24,91,91,91,44,44,44,20,20,20,29.65,29.32,0,0,0,0.00
2013-7-25,91,91,91,44,44,44,20,20,20,29.77,29.65,8,1,8,0.10
2013-7-26,91,91,91,44,44,44,20,20,20,29.77,29.71,2,2,2,0.42
2013-7-27,91,91,91,44,44,44,20,20,20,29.80,29.71,5,2,5,0.00
2013-7-28,91,91,91,44,44,44,20,20,20,29.74,29.68,25,2,25,0.00
2013-7-29,91,91,91,44,44,44,20,20,20,29.83,29.68,9,0,9,0.10
2013-7-30,91,91,91,44,44,44,20,20,20,29.88,29.83,0,0,0,0.00
2013-7-31,91,91,91,44,44,44,20,20,20,29.88,29.77,5,2,5,0.00
2013-8-1,91,91,91,44,44,44,20,20,20,29.77,29.56,0,0,0,0.33
2013-8-2,91,91,91,44,44,44,20,20,20,29.62,29.56,0,0,0,0.00
2013-8-3,91,91,91,44,44,44,20,20,20,29.65,29.59,0,0,0,0.00
2013-8-4,91,91,91,44,44,44,20,20,20,29.62,29.56,0,0,0,0.00
2013-8-5,91,91,91,44,44,44,20,20,20,29.77,29.62,8,3,8,0.00
2013-8-6,91,91,91,44,44,44,20,20,20,29.85,29.77,1,0,1,0.00
2013-8-7,91,91,91,44,44,44,20,20,20,29.85,29.83,0,0,0,0.00
2013-8-8,91,91,91,44,44,44,20,20,20,29.83,29.77,0,0,0,0.13
2013-8-9,91,91,91,44,44,44,20,20,20,29.77,29.56,0,0,0,0.00
2013-8-10,91,91,91,44,44,44,20,20,20,29.77,29.56,1,0,1,0.00
2013-8-11,91,91,91,44,44,44,20,20,20,29.85,29.77,13,2,13,0.00
2013-8-12,91,91,91,44,44,44,20,20,20,29.80,29.68,1,0,1,0.30
2013-8-13,91,91,91,44,44,44,20,20,20,29.68,29.44,0,0,0,0.69
2013-8-14,91,91,91,44,44,44,20,20,20,29.71,29.47,23,6,23,0.10
2013-8-15,91,91,91,44,44,44,20,20,20,29.85,29.71,10,3,10,0.00
2013-8-16,91,91,91,44,44,44,20,20,20,29.94,29.85,0,0,0,0.00
2013-8-17,91,91,91,44,44,44,20,20,20,30.00,29.94,0,0,0,0.00
2013-8-18,91,91,91,44,44,44,20,20,20,30.00,29.85,51,2,51,0.00
2013-8-19,91,91,91,44,44,44,20,20,20,29.85,29.77,12,3,12,0.00
2013-8-20,91,91,91,44,44,44,20,20,20,29.85,29.77,0,0,0,0.00
2013-8-21,91,91,91,44,44,44,20,20,20,29.91,29.80,0,0,0,0.00
2013-8-22,91,91,91,44,44,44,20,20,20,29.80,29.62,0,0,0,0.16
2013-8-23,91,91,91,44,44,44,20,20,20,29.77,29.59,14,7,14,0.01
2013-8-24,91,91,91,44,44,44,20,20,20,30.06,29.77,13,2,13,0.00
2013-8-25,91,91,91,44,44,44,20,20,20,30.12,29.97,25,2,25,0.00
2013-8-26,91,91,91,44,44,44,20,20,20,29.97,29.68,14,6,14,0.03
2013-8-27,91,91,91,44,44,44,20,20,20,29.68,29.53,12,12,12,0.04
2013-8-28,91,91,91,44,44,44,20,20,20,29.62,29.59,12,12,12,0.00
2013-8-29,91,91,91,44,44,44,20,20,20,29.77,29.62,12,1,12,0.00
2013-8-30,91,91,91,44,44,44,20,20,20,29.77,29.59,9,5,9,0.00
2013-8-31,91,91,91,44,44,44,20,20,20,29.62,29.59,9,9,9,0.00
2013-9-1,91,91,91,44,44,44,20,20,20,29.59,29.59,9,9,9,0.00
2013-9-2,91,91,91,44,44,44,20,20,20,29.59,29.59,9,9,9,0.00
2013-9-3,91,91,91,44,44,44,20,20,20,29.59,29.59,9,9,9,0.00
2013-9-4,91,91,91,44,44,44,20,20,20,29.59,29.59,9,9,9,0.00
2013-9-5,91,91,91,44,44,44,20,20,20,29.59,29.59,9,9,9,0.00
2013-9-6,91,90,38,44,44,20,46,20,20,29.59,29.59,9,9,9,0.00
2013-9-7,91,91,91,44,44,44,20,20,20,29.59,29.59,9,9,9,0.00
2013-9-8,91,68,32,44,22,-32,28,19,5,29.91,29.56,9,3,9,0.00
2013-9-9,32,32,32,-32,-32,-32,5,5,5,29.91,29.91,0,0,0,0.00
2013-9-10,32,32,32,-32,-32,-32,5,5,5,29.91,29.80,14,2,14,0.00
2013-9-11,32,32,32,-32,-32,-32,5,5,5,29.85,29.74,14,2,14,0.00
2013-9-12,32,32,32,-32,-32,-32,5,5,5,29.74,29.41,10,1,10,0.44
2013-9-13,32,32,32,-32,-32,-32,5,5,5,29.56,29.35,16,4,16,0.07
2013-9-14,69,50,32,26,-3,-32,21,13,5,29.80,29.56,17,4,17,0.00
2013-9-15,67,67,67,24,24,24,20,20,20,29.94,29.80,10,1,10,0.00
2013-9-16,67,67,67,24,24,24,20,20,20,29.94,29.77,16,4,16,0.01
2013-9-17,67,67,67,24,24,24,20,20,20,30.12,29.94,18,8,18,0.00
2013-9-20,68,68,68,26,26,26,20,20,20,29.88,29.88,11,6,11,0.00